Little Rock AFB, AR

4:49 PM CST on January 22, 2018 (GMT -0600)
Little Rock Air Force Base

Weather History for KLRF - October, 2012

Change the Weather History Date:

Tuesday, October 9, 2012

  Actual Average Record
Temperature  
Mean Temperature 52 °F -  
Max Temperature 69 °F 75 °F 94 °F (2017)
Min Temperature 37 °F 51 °F 35 °F (1992)
Degree Days  
Heating Degree Days 12    
Growing Degree Days 2 (Base 50)    
Moisture  
Dew Point 47 °F    
Average Humidity 74    
Maximum Humidity 95    
Minimum Humidity 50    
Precipitation  
Precipitation 0.00 in - - ()
Sea Level Pressure  
Sea Level Pressure 30.07 in    
Wind  
Wind Speed 3 mph (SW)    
Max Wind Speed 10 mph    
Max Gust Speed -    
Visibility 10 miles    
Events      
Averages and records for this station are not official NWS values.
T = Trace of Precipitation, MM = Missing Value Source: NWS Daily Summary

Daily Weather History Graph

Daily Weather History Graph

Search for Another Location

Airport or City:

Trip Planner

Search our weather history database for the weather conditions in past years. The results will help you decide how hot, cold, wet, or windy it might be!

Date:

Astronomy

Oct. 09, 2012 Rise Set
Actual Time 7:09 AM CDT 6:40 PM CDT
Civil Twilight 6:44 AM CDT 7:06 PM CDT
Nautical Twilight 6:15 AM CDT 7:35 PM CDT
Astronomical Twilight 5:46 AM CDT 8:04 PM CDT
Moon 1:00 AM CDT (10/9) 2:56 PM CDT (10/9)
Length of Visible Light 12h 21m
Length of Day
11h 30m
Last Quarter, 36% of the Moon is Illuminated
Oct 9
Last Quarter
Oct 15
New
Oct 21
First Quarter
Oct 29
Full
Nov 6
Last Quarter

Hourly Weather History & Observations

Time (CDT) Temp. Dew Point Humidity Pressure Visibility Wind Dir Wind Speed Gust Speed Precip Events Conditions
12:55 AM 41.0 °F 39.6 °F 95% 30.14 in 10.0 mi Calm Calm - N/A   Clear
1:55 AM 39.6 °F 38.3 °F 95% 30.14 in 10.0 mi Calm Calm - N/A   Clear
2:55 AM 38.8 °F 37.2 °F 94% 30.14 in 10.0 mi Calm Calm - N/A   Clear
3:55 AM 38.3 °F 37.0 °F 95% 30.13 in 10.0 mi Calm Calm - N/A   Clear
4:55 AM 39.0 °F 37.4 °F 94% 30.12 in 10.0 mi Calm Calm - N/A   Clear
5:55 AM 37.4 °F 36.1 °F 95% 30.14 in 10.0 mi Calm Calm - N/A   Clear
6:55 AM 37.8 °F 36.3 °F 95% 30.14 in 10.0 mi Calm Calm - N/A   Clear
7:55 AM 38.8 °F 37.2 °F 94% 30.15 in 10.0 mi Calm Calm - N/A   Clear
8:55 AM 46.2 °F 42.6 °F 87% 30.16 in 10.0 mi Calm Calm - N/A   Clear
9:55 AM 54.5 °F 44.6 °F 69% 30.15 in 10.0 mi South 5.8 mph - N/A   Clear
10:55 AM 57.9 °F 45.0 °F 62% 30.14 in 10.0 mi SSE 9.2 mph - N/A   Clear
11:55 AM 60.4 °F 45.5 °F 58% 30.11 in 10.0 mi SSW 10.4 mph - N/A   Clear
12:55 PM 63.0 °F 46.8 °F 55% 30.07 in 10.0 mi SE 10.4 mph - N/A   Clear
1:55 PM 65.5 °F 46.8 °F 51% 30.04 in 10.0 mi SSE 6.9 mph - N/A   Clear
2:55 PM 66.9 °F 47.5 °F 50% 30.01 in 10.0 mi South 5.8 mph - N/A   Clear
3:55 PM 68.9 °F 49.3 °F 50% 29.97 in 10.0 mi Variable 5.8 mph - N/A   Scattered Clouds
4:55 PM 67.8 °F 50.5 °F 54% 29.96 in 10.0 mi SSE 6.9 mph - N/A   Mostly Cloudy
5:55 PM 66.6 °F 51.6 °F 59% 29.96 in 10.0 mi Variable 3.5 mph - N/A   Mostly Cloudy
6:55 PM 65.5 °F 52.0 °F 62% 29.98 in 10.0 mi South 4.6 mph - N/A   Overcast
7:55 PM 64.6 °F 53.2 °F 67% 30.00 in 10.0 mi Calm Calm - N/A   Scattered Clouds
8:55 PM 65.3 °F 54.0 °F 67% 30.02 in 10.0 mi WSW 5.8 mph - N/A   Mostly Cloudy
9:55 PM 64.8 °F 54.3 °F 69% 30.04 in 10.0 mi West 5.8 mph - N/A   Overcast
10:01 PM 64.4 °F 53.6 °F 68% 30.05 in 10.0 mi WNW 5.8 mph - N/A   Overcast
10:55 PM 63.7 °F 54.9 °F 73% 30.05 in 10.0 mi West 4.6 mph - N/A   Overcast
11:19 PM 62.6 °F 55.4 °F 77% 30.06 in 10.0 mi WNW 5.8 mph - N/A   Light Drizzle
11:43 PM 60.8 °F 57.2 °F 88% 30.06 in 10.0 mi West 3.5 mph - N/A   Overcast
11:55 PM 61.7 °F 57.2 °F 85% 30.06 in 10.0 mi West 3.5 mph - 0.00 in   Mostly Cloudy